Location: Spruce Knob
(38.6995°N, 79.5330°W)
Time: 13:53:24
(UTC-04:00)

BUGSAT 1 - Visible Passes

Search period start: 14 June 2024 00:00
Search period end: 24 June 2024 00:00
Orbit: 529 x 580 km, 98.1° (Epoch: 13 June)

Date Brightness Start Highest point End Pass type
(mag) Time Alt. Az. Time Alt. Az. Time Alt. Az.
14 Jun ? 21:56:54 10° SSW 22:00:03 22° W 22:03:13 10° NW visible
15 Jun ? 21:53:53 10° SSW 21:57:09 24° W 22:00:24 10° NW visible
16 Jun ? 21:50:52 10° SSW 21:54:15 26° W 21:57:36 10° NW visible
17 Jun ? 21:47:51 10° SSW 21:51:19 28° W 21:54:46 10° NW visible
18 Jun ? 21:44:50 10° SSW 21:48:23 31° W 21:51:54 10° NW visible
19 Jun ? 21:41:48 10° SSW 21:45:26 33° W 21:49:02 10° NNW visible
20 Jun ? 21:38:48 10° SSW 21:42:28 36° W 21:46:08 10° NNW visible
21 Jun ? 21:35:46 10° S 21:39:30 40° W 21:43:13 10° NNW visible
22 Jun ? 21:32:45 10° S 21:36:32 44° W 21:40:17 10° NNW visible
23 Jun ? 21:29:43 10° S 21:33:32 48° W 21:37:20 10° NNW visible
